Simultaneous Nadir Overpasses (SNOs) Predictions

Prediction of SNOs between GOES-16 and AQUA Satellite Orbit:

Table of predicted SNOs for the next 14.0 days since TLE Epoch: 8/1/2025
Index Date Time (GOES-16) GOES-16 Lat,Lon AQUA Lat,Lon Distance(km) Time Diff (sec)
1 08/03/2025 09:43:31 -0.05,-104.73 -0.20,-104.11 71.13 80
2 08/03/2025 22:02:46 0.05,-104.73 -0.85,-108.76 458.83 80
3 08/05/2025 21:45:00 0.06,-104.73 0.29,-103.76 110.71 80
4 08/06/2025 10:04:07 -0.06,-104.73 0.72,-108.38 414.53 80
5 08/08/2025 09:40:59 -0.07,-104.73 -0.33,-103.36 155.00 80
6 08/08/2025 22:00:15 0.07,-104.72 -0.64,-108.02 375.15 80
7 08/10/2025 21:42:27 0.07,-104.72 0.45,-103.01 195.09 80
8 08/11/2025 10:01:34 -0.08,-104.73 0.55,-107.63 329.63 80
9 08/13/2025 09:38:25 -0.07,-104.73 -0.51,-102.61 240.84 80
10 08/13/2025 21:57:39 0.08,-104.72 -0.50,-107.26 289.37 80
